Location: Izdebno
(52.6670°N, 16.2170°E)
Time: 12:40:22
(UTC+02:00)

Vanguard 2 - Pass Details

Date: 04 February 2023
Orbit: 553 x 2927 km, 32.9° (Epoch: 26 March)

Event Time Altitude Azimuth Distance (km) Brightness Sun altitude
Rises 22:11:08 0° 231° (SW) 5,515 11.9 -46.7°
Reaches altitude 10° 22:14:52 10° 222° (SW) 4,817 11.5 -47.1°
Enters shadow 22:15:56 13° 219° (SW) 4,643 11.4 -47.2°
Maximum altitude 22:27:10 34° 166° (SSE) 3,890 - -48.3°
Drops below altitude 10° 22:41:50 10° 111° (ESE) 5,747 - -49.6°
Sets 22:46:49 0° 103° (ESE) 6,682 - -50.0°
